Other Surface Observations
Issued by NWS Tucson, AZ

Home | Current Version | Previous Version | Text Only | Print | Product List | Glossary On
Versions: 1 2 3 4 5 6 7 8 9 10 11 12 13 14 15 16 17 18 19 20 21 22 23 24 25 26 27 28 29 30 31 32 33 34 35 36 37 38 39 40 41 42 43 44 45 46 47 48 49 50
000
SXUS55 KTWC 231316
OSOTWC

WEATHER ROUNDUP FOR SOUTHEAST ARIZONA
NATIONAL WEATHER SERVICE TUCSON AZ
615 AM MST SUN NOV 23 2014

AZZ504>506-514-231415-
LOCATION       SKY/WX    TMP DP  RH WIND       PRES   REMARKS
TUCSON         CLEAR     43  29  57 CALM      30.01R
DAVIS-MONTHAN  CLEAR     44  29  57 SE3       30.00R
CHILDRENS PARK N/A       42  29  59 SE4               PIMA CO DEQ
ALVERNON/22ND  N/A      N/A N/A N/A N/A               PIMA CO DEQ
CHERRY/GLENN   N/A      N/A N/A N/A N/A               PIMA CO DEQ
TANGERINE      N/A       44 N/A N/A E3                PIMA CO DEQ
CONTL RANCH    N/A       43  30  59 SE2               PIMA CO DEQ
GRANT/1ST      N/A       46  30  53 SE2               PIMA CO DEQ
CRAYCROFT/22ND N/A      N/A N/A N/A N/A               PIMA CO DEQ
GOLFLINKS/KOLB N/A      N/A N/A N/A N/A               PIMA CO DEQ
AJO/12TH       N/A       41  30  64 S6                PIMA CO DEQ
SAGUARO EAST   N/A      N/A N/A N/A N/A               PIMA CO DEQ
FAIRGROUNDS    N/A       42 N/A N/A SE7               PIMA CO DEQ
SAGUARO        N/A       46  26  46 N4                *SABINO CYN
SAN CARLOS     N/A       39  22  50 NW3               *SAN CARLOS
GREEN VALLEY   N/A       52  31  45 SW8               PIMA CO DEQ
HORSE CAMP CYN N/A       48  24  39 W7G11             *ARAVAIPA CYN
RINCON MTNS    N/A       34  19  53 W7G16             *NR MANNING CAMP
$$

AZZ509>511-231415-
LOCATION       SKY/WX    TMP DP  RH WIND       PRES   REMARKS
SAFFORD        CLEAR     39  22  50 E5        29.95R
STRAY HORSE    N/A       34  19  54 W13G29            *
TRAIL CABIN    N/A       40  21  47 W10G17            *N OF GRANVILLE
BLACK HILLS    N/A       52  25  34 NW9G16            *N OF FT THOMAS
DRY LAKE       N/A       35  21  56 W9G17             *NATANES MTNS
NOON CREEK     N/A       40  22  48 W6G10             *PINALENO MTNS
COLUMBINE      N/A       29  15  55 W4G14             *PINALENO MTNS
GUTHRIE        N/A       42  22  45 W22G38            *SW OF GUTHRIE
$$

AZZ502-503-513-231415-
LOCATION       SKY/WX    TMP DP  RH WIND       PRES   REMARKS
NOGALES        CLEAR     36  29  75 SE5       30.02S WCI  32
SELLS          N/A       44  28  54 NE5               *
SASABE         N/A       44  34  68 CALM              *ALTAR VLY
HOPKINS        N/A       39  18  42 W18G24            *SANTA RITA MTNS
CARR CYN       N/A       45  23  41 E3G11             *W OF HEREFORD
$$

AZZ507-508-512-231415-
LOCATION       SKY/WX    TMP DP  RH WIND       PRES   REMARKS
SIERRA VISTA   PTCLDY    45  27  49 CALM      30.01R
DOUGLAS        PTCLDY    35  25  66 SE6       30.02R WCI  30
EMPIRE MTNS    N/A       42  26  53 W7G12             *LAS CIENEGAS NCA
MULESHOE RANCH N/A       43  23  45 N8G11             *PRESERVE
HEADQUARTERS   N/A       47  23  38 SW4G15            *CHIRICAHUA MTNS
$$

.............................NOTES.............................
THIS IS AN AUTOMATED COLLECTIVE WITH MINIMAL QUALITY CONTROL.
PIMA CO DEQ SITES HAVE NONSTANDARD WIND SENSOR HEIGHTS.
PIMA CO DEQ SITES DO NOT REPORT WIND GUSTS.
* INDICATES WIND SENSORS LOCATED AT 20 FEET INSTEAD OF 33 FEET.
..............................KEY..............................
SKY/WX - SKY CONDITION/WEATHER
TMP    - TEMPERATURE IN FAHRENHEIT
DP     - DEWPOINT IN FAHRENHEIT
RH     - RELATIVE HUMIDITY IN PERCENT
WIND   - DIRECTION AND SPEED IN MILES PER HOUR (MPH)
VRB    - VARIABLE WIND DIRECTION
PRES   - MEAN SEA LEVEL PRESSURE IN INCHES OF MERCURY
         F - FALLING PRESSURE   R - RISING PRESSURE
         S - STEADY PRESSURE
VSB    - VISIBILITY IN MILES
HX     - HEAT INDEX IN FAHRENHEIT
WCI    - WIND CHILL INDEX IN FAHRENHEIT
N/A    - NOT AVAILABLE
AFB    - AIR FORCE BASE
         DAVIS-MONTHAN IS DAVIS-MONTHAN AIR FORCE BASE
CYN    - CANYON
MTNS   - MOUNTAINS
NCA    - NATIONAL CONSERVATION AREA
NR     - NEAR
VLY    - VALLEY
CONTL  - CONTINENTAL
PIMA CO DEQ - PIMA COUNTY DEPT OF ENVIRONMENTAL QUALITY



USA.gov is the U.S. government's official web portal to all federal, state and local government web resources and services.